Time,TemperatureF,DewpointF,PressureIn,WindDirection,WindDirectionDegrees,WindSpeedMPH,WindSpeedGustMPH,Humidity,HourlyPrecipIn,Conditions,Clouds,dailyrainin,SolarRadiationWatts/m^2,SoftwareType,DateUTC
2013-09-30 00:04:00,53.0,47.0,-100.00,SSW,197,5.0,8.0,81,0.00,,,0.00,0.000000,,2013-09-30 04:04:00,
2013-09-30 00:44:00,51.0,46.0,-100.00,SSW,192,3.0,9.0,83,0.00,,,0.00,0.000000,,2013-09-30 04:44:00,
2013-09-30 00:53:00,51.0,46.0,-100.00,SSW,192,3.0,9.0,83,0.00,,,0.00,0.000000,,2013-09-30 04:53:00,
2013-09-30 01:03:00,51.0,46.0,-100.00,SSW,192,3.0,9.0,83,0.00,,,0.00,0.000000,,2013-09-30 05:03:00,
2013-09-30 01:43:00,52.0,46.0,-100.00,SSW,211,5.0,9.0,80,0.00,,,0.00,0.000000,,2013-09-30 05:43:00,
2013-09-30 01:52:00,52.0,46.0,-100.00,SSW,211,5.0,9.0,80,0.00,,,0.00,0.000000,,2013-09-30 05:52:00,
2013-09-30 02:03:00,52.0,46.0,-100.00,SSW,211,5.0,9.0,80,0.00,,,0.00,0.000000,,2013-09-30 06:03:00,
2013-09-30 02:42:00,53.0,46.0,-100.00,SSW,212,6.0,9.0,76,0.00,,,0.00,0.000000,,2013-09-30 06:42:00,
2013-09-30 02:52:00,53.0,46.0,-100.00,SSW,212,6.0,9.0,76,0.00,,,0.00,0.000000,,2013-09-30 06:52:00,
2013-09-30 03:02:00,53.0,46.0,-100.00,SSW,212,6.0,9.0,76,0.00,,,0.00,0.000000,,2013-09-30 07:02:00,
2013-09-30 03:42:00,53.0,45.0,-100.00,SSW,207,5.0,10.0,74,0.00,,,0.00,0.000000,,2013-09-30 07:42:00,
2013-09-30 03:53:00,53.0,45.0,-100.00,SSW,207,5.0,10.0,74,0.00,,,0.00,0.000000,,2013-09-30 07:53:00,
2013-09-30 04:02:00,53.0,45.0,-100.00,SSW,207,5.0,10.0,74,0.00,,,0.00,0.000000,,2013-09-30 08:02:00,
2013-09-30 04:42:00,51.0,45.0,-100.00,SSW,203,4.0,10.0,80,0.00,,,0.00,0.000000,,2013-09-30 08:42:00,
2013-09-30 04:52:00,51.0,45.0,-100.00,SSW,203,4.0,10.0,80,0.00,,,0.00,0.000000,,2013-09-30 08:52:00,
2013-09-30 05:02:00,51.0,45.0,-100.00,SSW,203,4.0,10.0,80,0.00,,,0.00,0.000000,,2013-09-30 09:02:00,
2013-09-30 05:42:00,49.0,46.0,-100.00,SW,235,3.0,5.0,90,-99.99,,,0.00,0.000000,,2013-09-30 09:42:00,
2013-09-30 05:54:00,49.0,46.0,-100.00,SW,235,3.0,5.0,90,-99.99,,,0.00,0.000000,,2013-09-30 09:54:00,
2013-09-30 06:03:00,49.0,46.0,-100.00,SW,235,3.0,5.0,90,-99.99,,,0.00,0.000000,,2013-09-30 10:03:00,
2013-09-30 06:43:00,50.0,45.0,-100.00,SSW,196,2.0,5.0,84,0.00,,,0.00,0.000000,,2013-09-30 10:43:00,
2013-09-30 07:43:00,48.0,45.0,-100.00,South,176,3.0,4.0,89,0.00,,,0.00,1.000000,,2013-09-30 11:43:00,
2013-09-30 07:52:00,48.0,45.0,-100.00,South,176,3.0,4.0,89,0.00,,,0.00,1.000000,,2013-09-30 11:52:00,
2013-09-30 08:02:00,48.0,45.0,-100.00,South,176,3.0,4.0,89,0.00,,,0.00,1.000000,,2013-09-30 12:02:00,
2013-09-30 08:42:00,51.0,48.0,-100.00,South,169,2.0,5.0,91,0.00,,,0.00,33.000000,,2013-09-30 12:42:00,
2013-09-30 12:44:00,68.0,53.0,-100.00,SSW,201,6.0,10.0,59,0.00,,,0.00,652.000000,,2013-09-30 16:44:00,
2013-09-30 12:54:00,68.0,53.0,-100.00,SSW,201,6.0,10.0,59,0.00,,,0.00,652.000000,,2013-09-30 16:54:00,
2013-09-30 13:04:00,68.0,53.0,-100.00,SSW,201,6.0,10.0,59,0.00,,,0.00,652.000000,,2013-09-30 17:04:00,
2013-09-30 13:43:00,71.0,53.0,-100.00,SSW,206,7.0,14.0,53,0.00,,,0.00,802.000000,,2013-09-30 17:43:00,
2013-09-30 13:53:00,71.0,53.0,-100.00,SSW,206,7.0,14.0,53,0.00,,,0.00,802.000000,,2013-09-30 17:53:00,
2013-09-30 14:02:00,71.0,53.0,-100.00,SSW,206,7.0,14.0,53,0.00,,,0.00,802.000000,,2013-09-30 18:02:00,
2013-09-30 14:42:00,69.0,52.0,-100.00,SW,215,5.0,13.0,54,0.00,,,0.00,506.000000,,2013-09-30 18:42:00,
2013-09-30 14:54:00,69.0,52.0,-100.00,SW,215,5.0,13.0,54,0.00,,,0.00,506.000000,,2013-09-30 18:54:00,
2013-09-30 15:02:00,69.0,52.0,-100.00,SW,215,5.0,13.0,54,0.00,,,0.00,506.000000,,2013-09-30 19:02:00,
2013-09-30 15:42:00,68.0,53.0,-100.00,WSW,249,4.0,12.0,59,0.00,,,0.00,382.000000,,2013-09-30 19:42:00,
2013-09-30 15:53:00,68.0,53.0,-100.00,WSW,249,4.0,12.0,59,0.00,,,0.00,382.000000,,2013-09-30 19:53:00,
2013-09-30 16:02:00,68.0,53.0,-100.00,WSW,249,4.0,12.0,59,0.00,,,0.00,382.000000,,2013-09-30 20:02:00,
2013-09-30 16:43:00,69.0,57.0,-100.00,NW,322,3.0,8.0,65,0.00,,,0.00,236.000000,,2013-09-30 20:43:00,
2013-09-30 16:53:00,69.0,57.0,-100.00,NW,322,3.0,8.0,65,0.00,,,0.00,236.000000,,2013-09-30 20:53:00,
2013-09-30 17:02:00,69.0,57.0,-100.00,NW,322,3.0,8.0,65,0.00,,,0.00,236.000000,,2013-09-30 21:02:00,
2013-09-30 17:44:00,67.0,55.0,-100.00,West,265,4.0,14.0,66,0.00,,,0.00,247.000000,,2013-09-30 21:44:00,
2013-09-30 17:54:00,67.0,55.0,-100.00,West,265,4.0,14.0,66,0.00,,,0.00,247.000000,,2013-09-30 21:54:00,
2013-09-30 18:03:00,67.0,55.0,-100.00,West,265,4.0,14.0,66,0.00,,,0.00,247.000000,,2013-09-30 22:03:00,
2013-09-30 18:44:00,63.0,51.0,-100.00,WSW,247,3.0,7.0,66,0.00,,,0.00,104.000000,,2013-09-30 22:44:00,
2013-09-30 18:54:00,63.0,51.0,-100.00,WSW,247,3.0,7.0,66,0.00,,,0.00,104.000000,,2013-09-30 22:54:00,
2013-09-30 19:03:00,63.0,51.0,-100.00,WSW,247,3.0,7.0,66,0.00,,,0.00,104.000000,,2013-09-30 23:03:00,
2013-09-30 19:43:00,62.0,56.0,-100.00,WSW,253,3.0,6.0,80,0.00,,,0.00,13.000000,,2013-09-30 23:43:00,
2013-09-30 19:54:00,62.0,56.0,-100.00,WSW,253,3.0,6.0,80,0.00,,,0.00,13.000000,,2013-09-30 23:54:00,
2013-09-30 20:03:00,62.0,56.0,-100.00,WSW,253,3.0,6.0,80,0.00,,,0.00,13.000000,,2013-10-01 00:03:00,
2013-09-30 20:43:00,61.0,55.0,-100.00,West,262,4.0,6.0,81,0.00,,,0.00,0.000000,,2013-10-01 00:43:00,
2013-09-30 20:52:00,61.0,55.0,-100.00,West,262,4.0,6.0,81,0.00,,,0.00,0.000000,,2013-10-01 00:52:00,
2013-09-30 21:03:00,61.0,55.0,-100.00,West,262,4.0,6.0,81,0.00,,,0.00,0.000000,,2013-10-01 01:03:00,
2013-09-30 21:42:00,61.0,56.0,-100.00,WSW,256,4.0,7.0,85,0.00,,,0.00,0.000000,,2013-10-01 01:42:00,
2013-09-30 21:52:00,61.0,56.0,-100.00,WSW,256,4.0,7.0,85,0.00,,,0.00,0.000000,,2013-10-01 01:52:00,
2013-09-30 22:02:00,61.0,56.0,-100.00,WSW,256,4.0,7.0,85,0.00,,,0.00,0.000000,,2013-10-01 02:02:00,
2013-09-30 22:43:00,60.0,56.0,-100.00,WSW,258,3.0,6.0,87,0.00,,,0.00,0.000000,,2013-10-01 02:43:00,
2013-09-30 22:52:00,60.0,56.0,-100.00,WSW,258,3.0,6.0,87,0.00,,,0.00,0.000000,,2013-10-01 02:52:00,
2013-09-30 23:03:00,60.0,56.0,-100.00,WSW,258,3.0,6.0,87,0.00,,,0.00,0.000000,,2013-10-01 03:03:00,
2013-09-30 23:44:00,59.0,57.0,-100.00,WSW,254,4.0,7.0,93,0.00,,,0.00,0.000000,,2013-10-01 03:44:00,
2013-09-30 23:55:00,59.0,57.0,-100.00,WSW,254,4.0,7.0,93,0.00,,,0.00,0.000000,,2013-10-01 03:55:00,